Preview of NWS' New Version of Forecast
This preview is not operational and should not be used for support decisions.

Regional Weather Roundup (RWR)

Issued by National Weather Service (NWS)

                            
000
ASUS46 KPQR 230910
RWROR 

OREGON REGIONAL WEATHER ROUNDUP
NATIONAL WEATHER SERVICE PORTLAND OR
200 AM PDT FRI AUG 23 2019

NOTE: "FAIR" INDICATES FEW OR NO CLOUDS BELOW 12,000 FEET WITH
NO SIGNIFICANT WEATHER AND/OR OBSTRUCTIONS TO VISIBILITY.

ORZ001>013-231000-
NORTHWEST OREGON

  
CITY           SKY/WX    TMP DP  RH WIND       PRES   REMARKS
ASTORIA        CLEAR     52  51  97 SE3       30.02S                  
TILLAMOOK      CLEAR     52  50  93 SE3       30.02S                  
NEWPORT        CLEAR     52  52 100 E3        30.02S                  
FLORENCE       FAIR      52  52 100 CALM      29.97S                  
PORTLAND       CLEAR     61  54  77 CALM      29.99F                  
VANCOUVER WA   CLEAR     58  53  84 CALM      29.99S                  
SCAPPOOSE      CLEAR     57  53  86 CALM      29.98F                  
HILLSBORO      CLEAR     53  51  93 CALM      29.99F                  
AURORA         CLEAR     57  52  83 CALM      30.00F                  
MCMINNVILLE    CLEAR     57  52  83 NW6       29.98F                  
SALEM          CLEAR     57  52  83 N6        29.97F                  
CORVALLIS      CLEAR     56  53  90 W7        29.99S                  
EUGENE         CLEAR     57  51  80 N5        29.97F                  
CRESWELL       CLEAR     52  52 100 CALM      29.96F                  
$$

ORZ021-028-231000-
SOUTHWEST OREGON

  
CITY           SKY/WX    TMP DP  RH WIND       PRES   REMARKS
NORTH BEND     CLEAR     54  53  97 CALM      29.97F                  
BROOKINGS      CLEAR     59  54  83 SE6       29.83S                  
ROSEBURG       CLEAR     57  51  80 CALM      29.95F                  
SEXTON SUMMIT  CLEAR     58  53  84 E3        30.00F                  
GRANTS PASS    FAIR      59  55  88 CALM      29.97F                  
MEDFORD        CLEAR     63  55  75 W3        29.93F                  
$$

ORZ014>016-041-231000-
COLUMBIA GORGE

  
CITY           SKY/WX    TMP DP  RH WIND       PRES   REMARKS
TROUTDALE      CLEAR     54  51  90 CALM      29.99F                  
HOOD RIVER     CLEAR     52  48  87 SW3       29.98F                  
THE DALLES     CLEAR     60  49  66 S5        29.95S                  
$$

ORZ029>031-041-044-049-050-061>064-502-503-505>511-231000-
EASTERN OREGON

  
CITY           SKY/WX    TMP DP  RH WIND       PRES   REMARKS
MADRAS         CLEAR     52  43  71 CALM      30.02S                  
REDMOND        CLEAR     49  41  74 SE3       30.02S                  
BEND           CLEAR     52  43  71 SW5       30.03S                  
PRINEVILLE     CLEAR     46  43  87 CALM      30.03S                  
KLAMATH FALLS  CLEAR     58  41  53 N5        30.03S                  
LAKEVIEW       CLEAR     57  35  43 N14       30.06F                  
HERMISTON      CLEAR     54  48  80 E3        29.93S                  
PENDLETON      CLEAR     58  45  62 S3        29.95S                  
JOHN DAY       CLEAR     54  42  62 E7        30.04S                  
MEACHAM        CLEAR     41  37  86 CALM      30.04F                  
LA GRANDE      CLEAR     55  44  66 W6        30.00S                  
BAKER CITY     CLEAR     51  41  68 SW5       30.02S                  
BURNS          PTCLDY    46  36  68 NW6       30.04F                  
ROME             N/A     51  33  50 S5        30.01S                  
ONTARIO        CLEAR     62  45  53 W5        29.95S                  
$$